This is the latest recevied weather packets stored in our database for station/object NM5PB-13. If no packets are shown the sender has not sent any weather packets the latest 10 day(s).
| Time | Temp. | Humidity | Pressure | Rain* | Wind** | Luminosity | Snow |
|---|---|---|---|---|---|---|---|
| 1787509927 | 24.44° C | 48% | 1019 hPa | 0 mm | - | - | - |
| 1787509023 | 24.44° C | 48% | 1019 hPa | 0 mm | - | - | - |
| 1787508120 | 23.89° C | 48% | 1020 hPa | 0 mm | - | - | - |
| 1787507216 | 24.44° C | 46% | 1020 hPa | 0 mm | - | - | - |
| 1787506311 | 24.44° C | 49% | 1020 hPa | 0 mm | - | - | - |
| 1787505409 | 23.89° C | 46% | 1020 hPa | 0 mm | - | - | - |
| 1787504503 | 23.89° C | 46% | 1020 hPa | 0 mm | - | - | - |
| 1787503599 | 23.89° C | 45% | 1020 hPa | 0 mm | - | - | - |
| 1787502694 | 23.33° C | 47% | 1020 hPa | 0 mm | - | - | - |
| 1787501792 | 23.33° C | 49% | 1020 hPa | 0 mm | - | - | - |
| 1787500888 | 22.22° C | 53% | 1020 hPa | 0 mm | - | - | - |
| 1787499983 | 22.22° C | 53% | 1020 hPa | 0 mm | - | - | - |
| 1787499081 | 22.22° C | 58% | 1020 hPa | 0 mm | - | - | - |
| 1787498177 | 21.67° C | 60% | 1020 hPa | 0 mm | - | - | - |
| 1787497271 | 21.11° C | 61% | 1020 hPa | 0 mm | - | - | - |
| 1787496366 | 20.56° C | 64% | 1020 hPa | 0 mm | - | - | - |
| 1787495464 | 20° C | 65% | 1020 hPa | 0 mm | - | - | - |
| 1787494560 | 19.44° C | 69% | 1020 hPa | 0 mm | - | - | - |
| 1787493658 | 18.33° C | 73% | 1020 hPa | 0 mm | - | - | - |
| 1787492754 | 17.22° C | 75% | 1019 hPa | 0 mm | - | - | - |
| 1787491848 | 16.67° C | 75% | 1019 hPa | 0 mm | - | - | - |
| 1787490934 | 16.11° C | 78% | 1019 hPa | 0 mm | - | - | - |
| 1787490016 | 15° C | 80% | 1019 hPa | 0 mm | - | - | - |
| 1787489102 | 14.44° C | 82% | 1019 hPa | 0 mm | - | - | - |
| 1787488194 | 13.33° C | 89% | 1019 hPa | 0 mm | - | - | - |
* Rain latest hour (hover to see other rain measurements)
** Current wind speed in m/s (hover to see current wind gust speed)